Year,Month,Day,Hour,Minute,Value (Times are PST for windspeed in km/hr)
2017,02,15,00,00,6.80
2017,02,15,00,01,8.10
2017,02,15,00,02,8.10
2017,02,15,00,03,5.20
2017,02,15,00,04,1.80
2017,02,15,00,05,1.80
2017,02,15,00,06,2.00
2017,02,15,00,07,4.30
2017,02,15,00,08,2.80
2017,02,15,00,09,0.40
2017,02,15,00,10,1.50
2017,02,15,00,11,0.40
2017,02,15,00,12,1.00
2017,02,15,00,13,3.30
2017,02,15,00,14,2.60
2017,02,15,00,15,1.70
2017,02,15,00,16,1.30
2017,02,15,00,17,1.70
2017,02,15,00,18,2.80
2017,02,15,00,19,3.80
2017,02,15,00,20,6.60
2017,02,15,00,21,7.10
2017,02,15,00,22,7.20
2017,02,15,00,23,3.40
2017,02,15,00,24,5.20
2017,02,15,00,25,3.30
2017,02,15,00,26,2.20
2017,02,15,00,27,3.90
2017,02,15,00,28,6.90
2017,02,15,00,29,4.40
2017,02,15,00,30,2.50
2017,02,15,00,31,3.70
2017,02,15,00,32,8.20
2017,02,15,00,33,3.90
2017,02,15,00,34,4.60
2017,02,15,00,35,9.50
2017,02,15,00,36,5.20
2017,02,15,00,37,2.50
2017,02,15,00,38,4.70
2017,02,15,00,39,6.30
2017,02,15,00,40,7.30
2017,02,15,00,41,9.20
2017,02,15,00,42,11.50
2017,02,15,00,43,4.00
2017,02,15,00,44,4.60
2017,02,15,00,45,4.20
2017,02,15,00,46,2.40
2017,02,15,00,47,1.80
2017,02,15,00,48,1.70
2017,02,15,00,49,3.60
2017,02,15,00,50,3.80
2017,02,15,00,51,9.50
2017,02,15,00,52,5.70
2017,02,15,00,53,4.40
2017,02,15,00,54,3.30
2017,02,15,00,55,2.20
2017,02,15,00,56,4.80
2017,02,15,00,57,6.40
2017,02,15,00,58,5.60
2017,02,15,00,59,5.60
2017,02,15,01,00,7.60
2017,02,15,01,01,7.00
2017,02,15,01,02,1.90
2017,02,15,01,03,4.40
2017,02,15,01,04,1.10
2017,02,15,01,05,1.70
2017,02,15,01,06,2.40
2017,02,15,01,07,2.50
2017,02,15,01,08,3.50
2017,02,15,01,09,5.80
2017,02,15,01,10,7.20
2017,02,15,01,11,6.40
2017,02,15,01,12,6.40
2017,02,15,01,13,8.60
2017,02,15,01,14,5.80
2017,02,15,01,15,5.00
2017,02,15,01,16,6.90
2017,02,15,01,17,7.30
2017,02,15,01,18,7.90
2017,02,15,01,19,7.50
2017,02,15,01,20,7.20
2017,02,15,01,21,12.60
2017,02,15,01,22,13.10
2017,02,15,01,23,7.80
2017,02,15,01,24,4.90
2017,02,15,01,25,3.30
2017,02,15,01,26,6.70
2017,02,15,01,27,4.80
2017,02,15,01,28,7.60
2017,02,15,01,29,11.80
2017,02,15,01,30,8.00
2017,02,15,01,31,12.30
2017,02,15,01,32,9.80
2017,02,15,01,33,5.70
2017,02,15,01,34,4.40
2017,02,15,01,35,9.10
2017,02,15,01,36,8.80
2017,02,15,01,37,12.10
2017,02,15,01,38,9.00
2017,02,15,01,39,13.00
2017,02,15,01,40,11.10
2017,02,15,01,41,10.10
2017,02,15,01,42,12.40
2017,02,15,01,43,6.80
2017,02,15,01,44,9.10
2017,02,15,01,45,11.20
2017,02,15,01,46,8.80
2017,02,15,01,47,11.70
2017,02,15,01,48,5.90
2017,02,15,01,49,6.50
2017,02,15,01,50,9.30
2017,02,15,01,51,5.60
2017,02,15,01,52,8.60
2017,02,15,01,53,10.50
2017,02,15,01,54,8.70
2017,02,15,01,55,7.80
2017,02,15,01,56,12.20
2017,02,15,01,57,10.80
2017,02,15,01,58,11.70
2017,02,15,01,59,11.40
2017,02,15,02,00,5.40
2017,02,15,02,01,7.80
2017,02,15,02,02,7.80
2017,02,15,02,03,12.70
2017,02,15,02,04,8.80
2017,02,15,02,05,11.80
2017,02,15,02,06,6.70
2017,02,15,02,07,8.70
2017,02,15,02,08,11.70
2017,02,15,02,09,9.50
2017,02,15,02,10,19.80
2017,02,15,02,11,14.80
2017,02,15,02,12,12.20
2017,02,15,02,13,6.80
2017,02,15,02,14,9.90
2017,02,15,02,15,11.00
2017,02,15,02,16,7.70
2017,02,15,02,17,12.90
2017,02,15,02,18,14.20
2017,02,15,02,19,10.90
2017,02,15,02,20,10.40
2017,02,15,02,21,10.50
2017,02,15,02,22,14.40
2017,02,15,02,23,10.50
2017,02,15,02,24,14.00
2017,02,15,02,25,8.40
2017,02,15,02,26,11.60
2017,02,15,02,27,13.20
2017,02,15,02,28,12.90
2017,02,15,02,29,14.00
2017,02,15,02,30,18.50
2017,02,15,02,31,15.00
2017,02,15,02,32,16.30
2017,02,15,02,33,18.20
2017,02,15,02,34,12.20
2017,02,15,02,35,12.50
2017,02,15,02,36,6.10
2017,02,15,02,37,9.80
2017,02,15,02,38,10.70
2017,02,15,02,39,13.10
2017,02,15,02,40,14.60
2017,02,15,02,41,12.00
2017,02,15,02,42,14.10
2017,02,15,02,43,17.30
2017,02,15,02,44,16.20
2017,02,15,02,45,9.70
2017,02,15,02,46,13.70
2017,02,15,02,47,14.70
2017,02,15,02,48,11.20
2017,02,15,02,49,14.40
2017,02,15,02,50,13.40
2017,02,15,02,51,12.90
2017,02,15,02,52,11.70
2017,02,15,02,53,13.60
2017,02,15,02,54,9.50
2017,02,15,02,55,8.70
2017,02,15,02,56,23.60
2017,02,15,02,57,16.80
2017,02,15,02,58,15.30
2017,02,15,02,59,15.10
2017,02,15,03,00,13.50
2017,02,15,03,01,10.50
2017,02,15,03,02,10.00
2017,02,15,03,03,8.10
2017,02,15,03,04,13.20
2017,02,15,03,05,15.20
2017,02,15,03,06,17.20
2017,02,15,03,07,14.20
2017,02,15,03,08,8.40
2017,02,15,03,09,11.90
2017,02,15,03,10,15.20
2017,02,15,03,11,15.70
2017,02,15,03,12,10.50
2017,02,15,03,13,16.70
2017,02,15,03,14,12.70
2017,02,15,03,15,11.80
2017,02,15,03,16,15.50
2017,02,15,03,17,12.80
2017,02,15,03,18,15.70
2017,02,15,03,19,11.10
2017,02,15,03,20,10.40
2017,02,15,03,21,13.30
2017,02,15,03,22,15.80
2017,02,15,03,23,12.00
2017,02,15,03,24,12.20
2017,02,15,03,25,11.20
2017,02,15,03,26,11.50
2017,02,15,03,27,15.00
2017,02,15,03,28,16.00
2017,02,15,03,29,15.50
2017,02,15,03,30,11.00
2017,02,15,03,31,9.30
2017,02,15,03,32,7.70
2017,02,15,03,33,10.30
2017,02,15,03,34,9.60
2017,02,15,03,35,13.30
2017,02,15,03,36,13.30
2017,02,15,03,37,8.70
2017,02,15,03,38,12.10
2017,02,15,03,39,8.50
2017,02,15,03,40,12.80
2017,02,15,03,41,15.20
2017,02,15,03,42,5.70
2017,02,15,03,43,12.00
2017,02,15,03,44,15.70
2017,02,15,03,45,13.20
2017,02,15,03,46,7.40
2017,02,15,03,47,6.20
2017,02,15,03,48,13.80
2017,02,15,03,49,11.90
2017,02,15,03,50,11.20
2017,02,15,03,51,11.60
2017,02,15,03,52,8.50
2017,02,15,03,53,10.30
2017,02,15,03,54,11.00
2017,02,15,03,55,8.90
2017,02,15,03,56,16.50
2017,02,15,03,57,12.60
2017,02,15,03,58,11.00
2017,02,15,03,59,12.40
2017,02,15,04,00,17.90
2017,02,15,04,01,13.20
2017,02,15,04,02,10.50
2017,02,15,04,03,9.90
2017,02,15,04,04,11.40
2017,02,15,04,05,14.40
2017,02,15,04,06,13.30
2017,02,15,04,07,17.30
2017,02,15,04,08,9.30
2017,02,15,04,09,7.10
2017,02,15,04,10,8.00
2017,02,15,04,11,12.60
2017,02,15,04,12,11.00
2017,02,15,04,13,9.30
2017,02,15,04,14,13.70
2017,02,15,04,15,11.70
2017,02,15,04,16,12.90
2017,02,15,04,17,14.00
2017,02,15,04,18,8.70
2017,02,15,04,19,5.20
2017,02,15,04,20,10.30
2017,02,15,04,21,5.20
2017,02,15,04,22,11.90
2017,02,15,04,23,13.00
2017,02,15,04,24,9.40
2017,02,15,04,25,7.50
2017,02,15,04,26,11.30
2017,02,15,04,27,12.60
2017,02,15,04,28,11.30
2017,02,15,04,29,12.10
2017,02,15,04,30,14.90
2017,02,15,04,31,14.00
2017,02,15,04,32,12.70
2017,02,15,04,33,12.70
2017,02,15,04,34,5.30
2017,02,15,04,35,7.80
2017,02,15,04,36,8.50
2017,02,15,04,37,13.60
2017,02,15,04,38,7.80
2017,02,15,04,39,10.60
2017,02,15,04,40,4.40
2017,02,15,04,41,7.80
2017,02,15,04,42,7.70
2017,02,15,04,43,6.70
2017,02,15,04,44,11.20
2017,02,15,04,45,8.70
2017,02,15,04,46,6.30
2017,02,15,04,47,5.20
2017,02,15,04,48,9.10
2017,02,15,04,49,10.20
2017,02,15,04,50,14.30
2017,02,15,04,51,11.40
2017,02,15,04,52,7.80
2017,02,15,04,53,4.20
2017,02,15,04,54,2.00
2017,02,15,04,55,4.70
2017,02,15,04,56,7.40
2017,02,15,04,57,4.40
2017,02,15,04,58,3.10
2017,02,15,04,59,6.50
2017,02,15,05,00,11.70
2017,02,15,05,01,10.00
2017,02,15,05,02,8.70
2017,02,15,05,03,7.40
2017,02,15,05,04,7.10
2017,02,15,05,05,7.40
2017,02,15,05,06,5.30
2017,02,15,05,07,5.30
2017,02,15,05,08,3.90
2017,02,15,05,09,3.40
2017,02,15,05,10,3.40
2017,02,15,05,11,4.20
2017,02,15,05,12,8.80
2017,02,15,05,13,6.80
2017,02,15,05,14,7.50
2017,02,15,05,15,6.90
2017,02,15,05,16,7.70
2017,02,15,05,17,8.00
2017,02,15,05,18,11.60
2017,02,15,05,19,9.40
2017,02,15,05,20,8.80
2017,02,15,05,21,7.00
2017,02,15,05,22,7.40
2017,02,15,05,23,8.30
2017,02,15,05,24,5.60
2017,02,15,05,25,9.20
2017,02,15,05,26,10.30
2017,02,15,05,27,11.80
2017,02,15,05,28,11.80
2017,02,15,05,29,15.50
2017,02,15,05,30,11.80
2017,02,15,05,31,10.60
2017,02,15,05,32,8.30
2017,02,15,05,33,13.30
2017,02,15,05,34,9.10
2017,02,15,05,35,9.90
2017,02,15,05,36,13.00
2017,02,15,05,37,9.40
2017,02,15,05,38,5.00
2017,02,15,05,39,7.40
2017,02,15,05,40,11.30
2017,02,15,05,41,9.00
2017,02,15,05,42,4.90
2017,02,15,05,43,5.20
2017,02,15,05,44,3.90
2017,02,15,05,45,3.90
2017,02,15,05,46,3.60
2017,02,15,05,47,8.70
2017,02,15,05,48,10.90
2017,02,15,05,49,5.50
2017,02,15,05,50,7.20
2017,02,15,05,51,7.10
2017,02,15,05,52,10.10
2017,02,15,05,53,17.00
2017,02,15,05,54,9.70
2017,02,15,05,55,11.70
2017,02,15,05,56,17.80
2017,02,15,05,57,11.00
2017,02,15,05,58,13.70
2017,02,15,05,59,15.50
2017,02,15,06,00,15.10
2017,02,15,06,01,10.40
2017,02,15,06,02,7.60
2017,02,15,06,03,17.00
2017,02,15,06,04,12.90
2017,02,15,06,05,12.00
2017,02,15,06,06,8.40
2017,02,15,06,07,9.00
2017,02,15,06,08,10.10
2017,02,15,06,09,13.30
2017,02,15,06,10,15.50
2017,02,15,06,11,12.50
2017,02,15,06,12,8.20
2017,02,15,06,13,12.90
2017,02,15,06,14,8.20
2017,02,15,06,15,9.90
2017,02,15,06,16,10.30
2017,02,15,06,17,13.30
2017,02,15,06,18,12.70
2017,02,15,06,19,9.40
2017,02,15,06,20,10.40
2017,02,15,06,21,7.50
2017,02,15,06,22,12.10
2017,02,15,06,23,11.20
2017,02,15,06,24,16.10
2017,02,15,06,25,8.80
2017,02,15,06,26,14.20
2017,02,15,06,27,8.40
2017,02,15,06,28,10.30
2017,02,15,06,29,10.60
2017,02,15,06,30,9.70
2017,02,15,06,31,6.20
2017,02,15,06,32,10.50
2017,02,15,06,33,7.30
2017,02,15,06,34,8.30
2017,02,15,06,35,9.30
2017,02,15,06,36,11.50
2017,02,15,06,37,5.80
2017,02,15,06,38,4.80
2017,02,15,06,39,9.40
2017,02,15,06,40,7.50
2017,02,15,06,41,10.50
2017,02,15,06,42,8.10
2017,02,15,06,43,6.30
2017,02,15,06,44,5.10
2017,02,15,06,45,4.80
2017,02,15,06,46,6.50
2017,02,15,06,47,11.60
2017,02,15,06,48,8.30
2017,02,15,06,49,11.50
2017,02,15,06,50,11.00
2017,02,15,06,51,11.00
2017,02,15,06,52,15.50
2017,02,15,06,53,11.00
2017,02,15,06,54,13.70
2017,02,15,06,55,7.60
2017,02,15,06,56,5.70
2017,02,15,06,57,14.50
2017,02,15,06,58,14.90
2017,02,15,06,59,10.60
2017,02,15,07,00,6.30
2017,02,15,07,01,4.90
2017,02,15,07,02,6.90
2017,02,15,07,03,7.00
2017,02,15,07,04,6.10
2017,02,15,07,05,4.30
2017,02,15,07,06,12.20
2017,02,15,07,07,9.30
2017,02,15,07,08,10.70
2017,02,15,07,09,14.60
2017,02,15,07,10,10.40
2017,02,15,07,11,5.50
2017,02,15,07,12,7.70
2017,02,15,07,13,8.00
2017,02,15,07,14,4.80
2017,02,15,07,15,10.50
2017,02,15,07,16,5.10
2017,02,15,07,17,6.00
2017,02,15,07,18,8.00
2017,02,15,07,19,8.70
2017,02,15,07,20,11.40
2017,02,15,07,21,15.00
2017,02,15,07,22,8.80
2017,02,15,07,23,8.80
2017,02,15,07,24,6.70
2017,02,15,07,25,11.00
2017,02,15,07,26,10.80
2017,02,15,07,27,7.70
2017,02,15,07,28,7.40
2017,02,15,07,29,8.00
2017,02,15,07,30,7.10
2017,02,15,07,31,5.80
2017,02,15,07,32,12.50
2017,02,15,07,33,7.50
2017,02,15,07,34,9.60
2017,02,15,07,35,11.20
2017,02,15,07,36,9.80
2017,02,15,07,37,10.90
2017,02,15,07,38,7.00
2017,02,15,07,39,12.10
2017,02,15,07,40,9.20
2017,02,15,07,41,13.50
2017,02,15,07,42,13.00
2017,02,15,07,43,10.10
2017,02,15,07,44,7.30
2017,02,15,07,45,6.80
2017,02,15,07,46,10.00
2017,02,15,07,47,11.50
2017,02,15,07,48,6.10
2017,02,15,07,49,11.50
2017,02,15,07,50,9.10
2017,02,15,07,51,9.50
2017,02,15,07,52,13.20
2017,02,15,07,53,14.00
2017,02,15,07,54,8.70
2017,02,15,07,55,6.70
2017,02,15,07,56,9.50
2017,02,15,07,57,10.60
2017,02,15,07,58,12.90
2017,02,15,07,59,8.00
2017,02,15,08,00,8.50
2017,02,15,08,01,8.90
2017,02,15,08,02,10.90
2017,02,15,08,03,9.80
2017,02,15,08,04,14.90
2017,02,15,08,05,9.60
2017,02,15,08,06,15.50
2017,02,15,08,07,8.70
2017,02,15,08,08,10.40
2017,02,15,08,09,12.00
2017,02,15,08,10,9.70
2017,02,15,08,11,16.30
2017,02,15,08,12,13.10
2017,02,15,08,13,13.20
2017,02,15,08,14,13.60
2017,02,15,08,15,5.00
2017,02,15,08,16,5.50
2017,02,15,08,17,12.30
2017,02,15,08,18,7.70
2017,02,15,08,19,15.30
2017,02,15,08,20,13.10
2017,02,15,08,21,12.40
2017,02,15,08,22,11.70
2017,02,15,08,23,17.00
2017,02,15,08,24,14.50
2017,02,15,08,25,13.80
2017,02,15,08,26,15.70
2017,02,15,08,27,9.80
2017,02,15,08,28,10.50
2017,02,15,08,29,12.60
2017,02,15,08,30,15.60
2017,02,15,08,31,12.20
2017,02,15,08,32,15.40
2017,02,15,08,33,10.60
2017,02,15,08,34,14.20
2017,02,15,08,35,15.60
2017,02,15,08,36,21.20
2017,02,15,08,37,12.20
2017,02,15,08,38,12.90
2017,02,15,08,39,13.90
2017,02,15,08,40,16.70
2017,02,15,08,41,13.00
2017,02,15,08,42,13.30
2017,02,15,08,43,12.60
2017,02,15,08,44,13.70
2017,02,15,08,45,14.60
2017,02,15,08,46,10.80
2017,02,15,08,47,13.00
2017,02,15,08,48,9.70
2017,02,15,08,49,7.10
2017,02,15,08,50,12.00
2017,02,15,08,51,9.30
2017,02,15,08,52,12.80
2017,02,15,08,53,14.80
2017,02,15,08,54,10.80
2017,02,15,08,55,12.50
2017,02,15,08,56,12.70
2017,02,15,08,57,9.20
2017,02,15,08,58,8.20
2017,02,15,08,59,11.10
2017,02,15,09,00,12.90
2017,02,15,09,01,11.30
2017,02,15,09,02,16.30
2017,02,15,09,03,15.70
2017,02,15,09,04,9.00
2017,02,15,09,05,9.00
2017,02,15,09,06,7.60
2017,02,15,09,07,11.80
2017,02,15,09,08,10.10
2017,02,15,09,09,13.90
2017,02,15,09,10,9.00
2017,02,15,09,11,9.30
2017,02,15,09,12,8.70
2017,02,15,09,13,10.10
2017,02,15,09,14,5.20
2017,02,15,09,15,13.70
2017,02,15,09,16,12.90
2017,02,15,09,17,10.40
2017,02,15,09,18,13.90
2017,02,15,09,19,11.80
2017,02,15,09,20,12.00
2017,02,15,09,21,13.40
2017,02,15,09,22,13.00
2017,02,15,09,23,8.50
2017,02,15,09,24,14.50
2017,02,15,09,25,14.80
2017,02,15,09,26,12.10
2017,02,15,09,27,11.80
2017,02,15,09,28,14.90
2017,02,15,09,29,12.60
2017,02,15,09,30,15.00
2017,02,15,09,31,10.70
2017,02,15,09,32,6.80
2017,02,15,09,33,8.00
2017,02,15,09,34,6.90
2017,02,15,09,35,15.20
2017,02,15,09,36,12.40
2017,02,15,09,37,15.70
2017,02,15,09,38,16.90
2017,02,15,09,39,11.00
2017,02,15,09,40,10.10
2017,02,15,09,41,10.40
2017,02,15,09,42,7.90
2017,02,15,09,43,11.20
2017,02,15,09,44,11.70
2017,02,15,09,45,10.10
2017,02,15,09,46,7.20
2017,02,15,09,47,10.10
2017,02,15,09,48,15.60
2017,02,15,09,49,14.50
2017,02,15,09,50,9.30
2017,02,15,09,51,14.50
2017,02,15,09,52,12.00
2017,02,15,09,53,10.70
2017,02,15,09,54,15.30
2017,02,15,09,55,8.90
2017,02,15,09,56,9.80
2017,02,15,09,57,15.90
2017,02,15,09,58,10.20
2017,02,15,09,59,8.20
2017,02,15,10,00,10.10
2017,02,15,10,01,11.90
2017,02,15,10,02,10.90
2017,02,15,10,03,12.60
2017,02,15,10,04,15.50
2017,02,15,10,05,20.20
2017,02,15,10,06,14.00
2017,02,15,10,07,16.40
2017,02,15,10,08,14.20
2017,02,15,10,09,13.30
2017,02,15,10,10,8.00
2017,02,15,10,11,9.10
2017,02,15,10,12,10.30
2017,02,15,10,13,16.50
2017,02,15,10,14,6.20
2017,02,15,10,15,6.40
2017,02,15,10,16,16.40
2017,02,15,10,17,11.40
2017,02,15,10,18,7.40
2017,02,15,10,19,12.80
2017,02,15,10,20,8.50
2017,02,15,10,21,9.70
2017,02,15,10,22,10.50
2017,02,15,10,23,14.00
2017,02,15,10,24,21.00
2017,02,15,10,25,7.20
2017,02,15,10,26,7.90
2017,02,15,10,27,7.20
2017,02,15,10,28,11.20
2017,02,15,10,29,13.70
2017,02,15,10,30,14.00
2017,02,15,10,31,16.00
2017,02,15,10,32,10.20
2017,02,15,10,33,12.70
2017,02,15,10,34,12.90
2017,02,15,10,35,13.00
2017,02,15,10,36,15.10
2017,02,15,10,37,12.80
2017,02,15,10,38,6.50
2017,02,15,10,39,8.90
2017,02,15,10,40,11.20
2017,02,15,10,41,7.70
2017,02,15,10,42,10.70
2017,02,15,10,43,12.30
2017,02,15,10,44,15.20
2017,02,15,10,45,10.20
2017,02,15,10,46,10.50
2017,02,15,10,47,10.10
2017,02,15,10,48,9.90
2017,02,15,10,49,15.90
2017,02,15,10,50,10.60
2017,02,15,10,51,11.70
2017,02,15,10,52,13.60
2017,02,15,10,53,10.00
2017,02,15,10,54,12.30
2017,02,15,10,55,20.50
2017,02,15,10,56,20.90
2017,02,15,10,57,11.20
2017,02,15,10,58,11.40
2017,02,15,10,59,11.00
2017,02,15,11,00,18.70
2017,02,15,11,01,20.50
2017,02,15,11,02,7.90
2017,02,15,11,03,19.20
2017,02,15,11,04,13.70
2017,02,15,11,05,17.00
2017,02,15,11,06,18.60
2017,02,15,11,07,7.90
2017,02,15,11,08,17.80
2017,02,15,11,09,20.10
2017,02,15,11,10,12.80
2017,02,15,11,11,16.30
2017,02,15,11,12,13.90
2017,02,15,11,13,19.50
2017,02,15,11,14,23.40
2017,02,15,11,15,20.80
2017,02,15,11,16,16.10
2017,02,15,11,17,10.80
2017,02,15,11,18,11.80
2017,02,15,11,19,18.00
2017,02,15,11,20,11.60
2017,02,15,11,21,16.90
2017,02,15,11,22,18.40
2017,02,15,11,23,21.50
2017,02,15,11,24,23.60
2017,02,15,11,25,14.80
2017,02,15,11,26,15.10
2017,02,15,11,27,17.10
2017,02,15,11,28,18.90
2017,02,15,11,29,23.60
2017,02,15,11,30,11.40
2017,02,15,11,31,12.60
2017,02,15,11,32,16.60
2017,02,15,11,33,20.20
2017,02,15,11,34,22.70
2017,02,15,11,35,21.00
2017,02,15,11,36,21.50
2017,02,15,11,37,23.30
2017,02,15,11,38,17.00
2017,02,15,11,39,22.60
2017,02,15,11,40,16.50
2017,02,15,11,41,16.30
2017,02,15,11,42,18.40
2017,02,15,11,43,19.90
2017,02,15,11,44,14.80
2017,02,15,11,45,25.60
2017,02,15,11,46,21.00
2017,02,15,11,47,15.60
2017,02,15,11,48,15.60
2017,02,15,11,49,22.30
2017,02,15,11,50,14.30
2017,02,15,11,51,23.10
2017,02,15,11,52,16.70
2017,02,15,11,53,20.00
2017,02,15,11,54,16.90
2017,02,15,11,55,19.50
2017,02,15,11,56,14.60
2017,02,15,11,57,20.30
2017,02,15,11,58,17.40
2017,02,15,11,59,22.50
2017,02,15,12,00,21.30
2017,02,15,12,01,17.10
2017,02,15,12,02,16.50
2017,02,15,12,03,20.60
2017,02,15,12,04,20.30
2017,02,15,12,05,12.10
2017,02,15,12,06,24.00
2017,02,15,12,07,26.30
2017,02,15,12,08,27.10
2017,02,15,12,09,17.10
2017,02,15,12,10,16.30
2017,02,15,12,11,15.80
2017,02,15,12,12,19.40
2017,02,15,12,13,17.60
2017,02,15,12,14,12.20
2017,02,15,12,15,19.70
2017,02,15,12,16,20.40
2017,02,15,12,17,20.70
2017,02,15,12,18,17.30
2017,02,15,12,19,19.10
2017,02,15,12,20,18.80
2017,02,15,12,21,17.40
2017,02,15,12,22,22.60
2017,02,15,12,23,29.60
2017,02,15,12,24,22.10
2017,02,15,12,25,21.30
2017,02,15,12,26,20.40
2017,02,15,12,27,23.30
2017,02,15,12,28,23.50
2017,02,15,12,29,17.60
2017,02,15,12,30,23.00
2017,02,15,12,31,25.10
2017,02,15,12,32,26.70
2017,02,15,12,33,18.60
2017,02,15,12,34,15.50
2017,02,15,12,35,21.20
2017,02,15,12,36,26.70
2017,02,15,12,37,22.80
2017,02,15,12,38,16.20
2017,02,15,12,39,18.00
2017,02,15,12,40,24.40
2017,02,15,12,41,27.00
2017,02,15,12,42,21.30
2017,02,15,12,43,20.30
2017,02,15,12,44,29.10
2017,02,15,12,45,22.40
2017,02,15,12,46,19.30
2017,02,15,12,47,17.50
2017,02,15,12,48,20.70
2017,02,15,12,49,17.70
2017,02,15,12,50,17.60
2017,02,15,12,51,14.00
2017,02,15,12,52,22.20
2017,02,15,12,53,22.60
2017,02,15,12,54,20.60
2017,02,15,12,55,23.70
2017,02,15,12,56,9.70
2017,02,15,12,57,15.60
2017,02,15,12,58,17.10
2017,02,15,12,59,14.50
2017,02,15,13,00,18.80
2017,02,15,13,01,19.90
2017,02,15,13,02,16.50
2017,02,15,13,03,14.70
2017,02,15,13,04,11.80
2017,02,15,13,05,20.60
2017,02,15,13,06,15.60
2017,02,15,13,07,16.20
2017,02,15,13,08,12.00
2017,02,15,13,09,21.90
2017,02,15,13,10,16.70
2017,02,15,13,11,12.40
2017,02,15,13,12,15.80
2017,02,15,13,13,15.00
2017,02,15,13,14,11.80
2017,02,15,13,15,18.60
2017,02,15,13,16,19.00
2017,02,15,13,17,16.30
2017,02,15,13,18,18.90
2017,02,15,13,19,19.10
2017,02,15,13,20,18.80
2017,02,15,13,21,19.40
2017,02,15,13,22,16.10
2017,02,15,13,23,16.90
2017,02,15,13,24,19.40
2017,02,15,13,25,19.60
2017,02,15,13,26,16.60
2017,02,15,13,27,22.80
2017,02,15,13,28,19.30
2017,02,15,13,29,19.40
2017,02,15,13,30,21.60
2017,02,15,13,31,18.90
2017,02,15,13,32,14.50
2017,02,15,13,33,14.00
2017,02,15,13,34,18.80
2017,02,15,13,35,17.10
2017,02,15,13,36,15.80
2017,02,15,13,37,10.70
2017,02,15,13,38,19.10
2017,02,15,13,39,13.70
2017,02,15,13,40,15.70
2017,02,15,13,41,12.10
2017,02,15,13,42,10.30
2017,02,15,13,43,16.90
2017,02,15,13,44,10.10
2017,02,15,13,45,12.60
2017,02,15,13,46,13.10
2017,02,15,13,47,13.40
2017,02,15,13,48,16.40
2017,02,15,13,49,15.80
2017,02,15,13,50,17.00
2017,02,15,13,51,13.70
2017,02,15,13,52,13.60
2017,02,15,13,53,16.80
2017,02,15,13,54,10.00
2017,02,15,13,55,17.90
2017,02,15,13,56,15.40
2017,02,15,13,57,20.50
2017,02,15,13,58,18.30
2017,02,15,13,59,21.30
2017,02,15,14,00,14.10
2017,02,15,14,01,14.50
2017,02,15,14,02,22.80
2017,02,15,14,03,16.40
2017,02,15,14,04,18.50
2017,02,15,14,05,17.40
2017,02,15,14,06,25.50
2017,02,15,14,07,15.50
2017,02,15,14,08,14.70
2017,02,15,14,09,14.90
2017,02,15,14,10,14.10
2017,02,15,14,11,21.30
2017,02,15,14,12,20.20
2017,02,15,14,13,15.90
2017,02,15,14,14,13.40
2017,02,15,14,15,12.10
2017,02,15,14,16,9.30
2017,02,15,14,17,11.20
2017,02,15,14,18,13.00
2017,02,15,14,19,11.40
2017,02,15,14,20,14.80
2017,02,15,14,21,16.00
2017,02,15,14,22,20.60
2017,02,15,14,23,16.00
2017,02,15,14,24,13.90
2017,02,15,14,25,11.30
2017,02,15,14,26,18.90
2017,02,15,14,27,22.80
2017,02,15,14,28,22.00
2017,02,15,14,29,21.90
2017,02,15,14,30,18.20
2017,02,15,14,31,13.50
2017,02,15,14,32,17.80
2017,02,15,14,33,18.20
2017,02,15,14,34,23.10
2017,02,15,14,35,21.90
2017,02,15,14,36,19.00
2017,02,15,14,37,16.40
2017,02,15,14,38,18.70
2017,02,15,14,39,20.30
2017,02,15,14,40,16.60
2017,02,15,14,41,13.00
2017,02,15,14,42,14.40
2017,02,15,14,43,16.70
2017,02,15,14,44,16.80
2017,02,15,14,45,18.70
2017,02,15,14,46,15.10
2017,02,15,14,47,19.10
2017,02,15,14,48,18.80
2017,02,15,14,49,14.20
2017,02,15,14,50,18.30
2017,02,15,14,51,17.60
2017,02,15,14,52,20.40
2017,02,15,14,53,20.30
2017,02,15,14,54,15.50
2017,02,15,14,55,20.00
2017,02,15,14,56,26.00
2017,02,15,14,57,24.10
2017,02,15,14,58,17.00
2017,02,15,14,59,22.20
2017,02,15,15,00,24.00
2017,02,15,15,01,26.80
2017,02,15,15,02,24.70
2017,02,15,15,03,23.00
2017,02,15,15,04,20.90
2017,02,15,15,05,27.00
2017,02,15,15,06,23.10
2017,02,15,15,07,20.40
2017,02,15,15,08,20.80
2017,02,15,15,09,15.90
2017,02,15,15,10,17.60
2017,02,15,15,11,20.70
2017,02,15,15,12,19.30
2017,02,15,15,13,17.10
2017,02,15,15,14,15.20
2017,02,15,15,15,13.90
2017,02,15,15,16,16.90
2017,02,15,15,17,16.60
2017,02,15,15,18,13.90
2017,02,15,15,19,21.00
2017,02,15,15,20,18.80
2017,02,15,15,21,20.00
2017,02,15,15,22,20.60
2017,02,15,15,23,21.70
2017,02,15,15,24,19.30
2017,02,15,15,25,19.60
2017,02,15,15,26,22.50
2017,02,15,15,27,23.60
2017,02,15,15,28,19.40
2017,02,15,15,29,13.50
2017,02,15,15,30,19.00
2017,02,15,15,31,23.00
2017,02,15,15,32,17.40
2017,02,15,15,33,22.40
2017,02,15,15,34,20.00
2017,02,15,15,35,18.40
2017,02,15,15,36,23.20
2017,02,15,15,37,22.90
2017,02,15,15,38,21.40
2017,02,15,15,39,23.80
2017,02,15,15,40,23.10
2017,02,15,15,41,17.50
2017,02,15,15,42,22.70
2017,02,15,15,43,20.80
2017,02,15,15,44,22.60
2017,02,15,15,45,21.40
2017,02,15,15,46,21.70
2017,02,15,15,47,26.60
2017,02,15,15,48,20.10
2017,02,15,15,49,28.40
2017,02,15,15,50,24.30
2017,02,15,15,51,17.40
2017,02,15,15,52,17.10
2017,02,15,15,53,22.10
2017,02,15,15,54,29.50
2017,02,15,15,55,19.50
2017,02,15,15,56,20.90
2017,02,15,15,57,19.10
2017,02,15,15,58,20.70
2017,02,15,15,59,15.60
2017,02,15,16,00,19.90
2017,02,15,16,01,14.40
2017,02,15,16,02,13.90
2017,02,15,16,03,17.70
2017,02,15,16,04,25.20
2017,02,15,16,05,15.40
2017,02,15,16,06,12.10
2017,02,15,16,07,17.60
2017,02,15,16,08,21.00
2017,02,15,16,09,13.90
2017,02,15,16,10,14.40
2017,02,15,16,11,17.00
2017,02,15,16,12,19.10
2017,02,15,16,13,20.30
2017,02,15,16,14,15.90
2017,02,15,16,15,16.80
2017,02,15,16,16,20.80
2017,02,15,16,17,18.50
2017,02,15,16,18,16.00
2017,02,15,16,19,18.70
2017,02,15,16,20,15.20
2017,02,15,16,21,19.00
2017,02,15,16,22,14.60
2017,02,15,16,23,15.60
2017,02,15,16,24,11.90
2017,02,15,16,25,14.20
2017,02,15,16,26,10.40
2017,02,15,16,27,11.80
2017,02,15,16,28,11.80
2017,02,15,16,29,11.00
2017,02,15,16,30,15.10
2017,02,15,16,31,10.70
2017,02,15,16,32,21.00
2017,02,15,16,33,17.80
2017,02,15,16,34,14.30
2017,02,15,16,35,18.00
2017,02,15,16,36,29.40
2017,02,15,16,37,20.40
2017,02,15,16,38,19.00
2017,02,15,16,39,17.10
2017,02,15,16,40,12.30
2017,02,15,16,41,17.30
2017,02,15,16,42,21.30
2017,02,15,16,43,26.30
2017,02,15,16,44,12.30
2017,02,15,16,45,14.90
2017,02,15,16,46,13.90
2017,02,15,16,47,14.50
2017,02,15,16,48,18.80
2017,02,15,16,49,11.80
2017,02,15,16,50,17.10
2017,02,15,16,51,16.50
2017,02,15,16,52,16.60
2017,02,15,16,53,15.80
2017,02,15,16,54,19.60
2017,02,15,16,55,18.70
2017,02,15,16,56,17.30
2017,02,15,16,57,11.10
2017,02,15,16,58,10.40
2017,02,15,16,59,16.10
2017,02,15,17,00,15.90
2017,02,15,17,01,10.00
2017,02,15,17,02,14.80
2017,02,15,17,03,13.70
2017,02,15,17,04,16.80
2017,02,15,17,05,13.20
2017,02,15,17,06,11.10
2017,02,15,17,07,14.00
2017,02,15,17,08,11.10
2017,02,15,17,09,12.90
2017,02,15,17,10,11.20
2017,02,15,17,11,9.20
2017,02,15,17,12,14.20
2017,02,15,17,13,9.50
2017,02,15,17,14,12.80
2017,02,15,17,15,11.00
2017,02,15,17,16,8.00
2017,02,15,17,17,13.20
2017,02,15,17,18,17.00
2017,02,15,17,19,13.30
2017,02,15,17,20,12.10
2017,02,15,17,21,9.30
2017,02,15,17,22,10.60
2017,02,15,17,23,11.40
2017,02,15,17,24,13.40
2017,02,15,17,25,14.70
2017,02,15,17,26,11.90
2017,02,15,17,27,12.00
2017,02,15,17,28,14.00
2017,02,15,17,29,11.60
2017,02,15,17,30,13.70
2017,02,15,17,31,18.10
2017,02,15,17,32,12.50
2017,02,15,17,33,9.90